sat.trackr.live / text

‹ back to catalog

STARLINK-37314

NORAD 68740 · 2026-082N

PAYLOAD ACTIVE UNKNOWN

§ Identity

Operator
Country
US
Launch date
2026-04-15
Launch site
AFWTR
Launch vehicle
Mass (kg)
RCS (m²)

Purposes: comms

External: N2YO · Heavens-Above · Gunter

§ Orbital elements

Epoch: 2026-05-25T04:00:03.998880Z

Period
92.62 min
Inclination
97.2856°
Eccentricity
0.0002004
Mean motion
15.54802450 rev/d
Perigee alt
401.4 km
Apogee alt
404.1 km
Semi-major
6,780.9 km
B*
-3.4138e-2
RAAN
8.7970°
Arg perigee
100.9055°
Mean anomaly
38.2128°
Rev number
589

§ Raw data

STARLINK-373141 68740U 26082N   26145.16671295 -.02028562  00000+0 -34138-1 0  99942 68740  97.2856   8.7970 0002004 100.9055  38.2128 15.54802450  5891

JSON: /api/v1/satellites/68740 · /tle

For live sub-satellite position, see the globe view (requires WebGL).

§ Visibility from observer

Set your observer location to see the next 7 days of passes ≥ 10°. The values pass through the URL so the page stays shareable.

No JS? Fill the form by hand. The geolocation button needs JavaScript.